Dewpoint
26 16 20 27 23 22 25 26 25 26 29 29 28 29 30 31 30 30 30 30 31 33 35 36 37 40 39 39 38 38 37 37 38 39 40 40 41 42 43 45 46 47 47 47
23 22 27 29 30 29 28 25 23 26 29 31 30 27 28 29 28 29 29 29 31 33 34 35 36 37 37 38 37 36 36 36 38 39 40 41 42 43 44 46 47 48 48 49
18 26 29 30 31 27 26 25 26 28 31 31 28 23 20 24 29 30 32 32 33 33 33 35 35 35 36 37 35 35 36 36 38 39 41 43 44 45 46 48 48 49 49 49
26 29 29 31 29 29 21 28 31 32 29 19 27 14 20 23 23 26 27 29 30 32 34 35 35 34 35 37 35 34 36 36 37 40 42 43 44 44 45 48 49 50 50 52
23 27 28 26 29 31 27 33 33 32 29 26 24 23 20 24 21 21 25 27 29 31 33 34 34 35 37 38 34 33 35 36 37 39 42 43 44 45 47 47 49 50 53 54
31 33 31 29 32 32 32 30 26 28 27 18 21 23 15 18 21 22 26 28 30 31 33 34 35 37 37 38 33 32 34 35 37 39 41 42 43 44 46 46 47 49 51 51
26 31 33 33 28 32 29 18 -2 4 10 11 23 22 15 20 24 24 25 28 31 34 35 35 35 35 36 37 32 31 33 33 36 38 41 41 42 44 45 45 46 47 47 47
16 8 31 33 29 28 29 21 4 -19 -8 5 23 10 6 25 28 29 29 32 33 34 35 35 36 36 37 37 32 30 30 32 34 37 38 40 41 42 43 43 45 45 45 42
17 13 29 33 33 30 29 23 27 21 22 17 12 15 14 20 21 25 27 29 30 30 31 32 34 36 37 37 32 29 30 31 33 35 37 37 39 40 40 41 42 42 42 41
25 7 24 32 33 33 30 29 18 18 -5 -12 -3 2 -6 5 22 26 26 24 26 28 30 31 33 34 36 37 32 30 31 30 32 34 35 35 35 37 37 38 37 37 38 36
28 23 14 31 30 28 31 29 27 22 18 4 -2 -7 13 11 18 26 26 27 29 31 32 32 32 31 34 35 31 29 29 29 30 31 33 33 31 32 32 31 32 33 32 32
30 26 13 15 28 29 30 27 26 15 8 22 17 3 18 20 23 26 27 26 26 29 29 28 27 27 30 33 30 28 28 27 28 26 32 31 29 28 27 27 28 28 28 29
29 19 1 0 19 28 26 29 28 22 19 18 9 -2 12 22 21 21 20 19 20 21 22 23 23 25 27 29 29 27 26 25 24 25 28 27 27 27 25 26 26 26 26 27
29 21 10 -7 -4 18 20 26 29 26 23 20 17 11 11 13 18 18 20 21 21 22 23 23 23 24 27 28 27 26 25 24 24 24 24 24 24 24 24 25 25 26 26 26
29 22 24 23 23 22 21 19 23 25 25 19 13 15 16 19 21 22 22 22 21 21 21 21 22 23 24 26 27 26 25 24 24 24 24 23 23 24 25 25 25 26 26 26
30 23 25 22 23 23 21 21 23 21 22 26 24 22 22 22 22 20 20 20 20 20 20 20 21 23 23 24 27 27 26 24 24 23 23 23 23 24 24 25 25 26 26 26
28 27 21 13 19 18 8 10 18 23 23 21 19 19 20 18 18 19 21 21 20 20 20 20 21 22 23 24 28 29 27 25 24 23 23 23 23 23 24 24 25 25 25 25
26 26 24 20 16 0 7 16 17 18 20 24 22 22 22 22 23 24 23 21 19 18 20 21 23 22 24 27 29 29 28 25 24 24 23 23 23 23 24 24 24 25 25 25
27 26 21 15 15 12 11 16 17 14 9 18 22 21 22 22 21 19 21 19 19 20 21 23 25 24 26 27 28 29 28 26 25 24 24 23 23 23 24 24 24 25 24 25
27 26 22 19 12 5 9 14 19 17 5 10 20 18 18 18 22 26 23 23 23 24 25 25 27 25 25 26 28 28 28 26 25 25 24 24 24 24 24 24 24 24 25 25
25 25 23 22 19 19 21 21 21 13 8 13 16 19 19 22 24 26 26 25 27 26 27 27 27 26 25 26 28 28 27 27 27 26 25 25 24 24 24 24 24 24 24 25
21 22 22 23 21 16 23 22 17 16 19 23 23 26 27 29 30 30 30 29 29 30 30 29 28 26 27 28 28 28 27 28 27 26 25 25 25 25 25 24 24 24 24 24
18 21 21 22 20 23 24 23 24 24 24 26 27 30 31 30 30 30 30 30 30 31 32 30 27 27 28 28 29 27 27 28 27 26 25 25 24 24 25 24 24 24 24 23
22 23 21 22 22 23 24 24 26 27 29 31 31 31 31 31 31 30 30 30 31 32 32 31 29 28 28 28 28 28 28 28 26 25 25 24 24 24 25 25 24 23 23 23
26 26 26 25 26 27 27 28 29 30 31 32 32 32 31 31 30 30 30 30 31 31 31 32 31 30 30 29 29 29 29 27 26 25 24 24 24 26 24 25 24 23 23 23
29 28 27 27 27 28 29 30 31 31 32 32 31 31 30 30 29 30 30 30 31 31 32 32 32 31 31 31 31 31 30 27 26 25 24 24 24 25 25 24 24 26 24 26
Wind_Speed
7 9 7 5 5 5 4 1 6 6 4 10 7 26 34 24 13 15 14 12 10 10 6 5 7 5 7 6 8 10 12 14 14 14 16 16 17 17 17 15 18 19 17 18
5 7 3 1 2 2 2 2 5 10 4 5 11 33 23 9 5 6 7 9 11 9 9 8 6 5 6 7 8 10 12 14 13 11 12 8 15 15 16 16 18 16 16 16
5 5 3 1 1 2 2 1 3 6 12 3 14 11 3 2 5 7 10 11 12 14 14 11 8 7 7 8 8 10 11 12 12 12 11 11 12 12 11 15 16 14 15 16
6 2 2 1 1 1 4 2 2 8 10 6 8 7 7 5 9 8 11 12 14 15 14 13 12 9 8 8 6 7 10 11 11 13 11 12 11 14 15 16 16 16 13 13
2 4 2 2 1 2 2 2 4 2 1 5 1 2 7 3 11 10 6 6 6 8 10 13 12 10 10 8 7 7 9 10 11 12 10 11 13 12 14 14 13 15 11 12
2 1 2 1 1 0 2 2 4 3 2 2 1 0 8 8 8 5 5 5 8 11 10 11 11 10 12 7 6 7 8 9 10 11 11 10 12 14 14 14 11 12 11 12
3 0 1 1 1 1 5 4 5 3 2 3 2 4 16 8 7 4 4 8 9 10 12 13 13 12 11 9 8 7 6 9 9 10 10 10 11 11 10 12 8 8 8 9
1 2 2 2 1 1 3 2 2 4 5 9 2 9 4 3 6 10 11 10 13 13 11 12 14 13 13 11 9 8 7 8 6 7 10 10 9 8 9 9 9 5 6 8
1 3 1 3 2 2 2 1 3 3 0 4 5 9 17 7 11 10 14 10 10 10 10 11 11 11 13 12 13 11 9 8 5 5 6 7 8 8 8 10 8 7 6 5
3 3 1 1 2 4 2 8 1 2 3 6 7 9 6 4 3 5 6 7 10 12 13 13 13 13 13 14 12 10 10 9 6 5 4 4 5 5 6 6 7 7 6 7
4 1 1 1 6 7 4 2 2 2 2 2 7 8 8 5 4 4 7 10 14 18 20 20 20 18 15 11 13 13 12 11 9 7 5 5 4 3 3 4 5 6 6 7
2 3 5 4 2 2 2 4 6 3 3 2 1 14 3 6 5 4 9 15 20 20 23 23 21 18 15 14 15 16 14 14 12 9 8 6 5 4 3 2 1 2 4 4
6 1 6 1 2 1 5 5 5 4 3 11 6 9 0 1 2 7 16 22 24 21 23 21 19 16 14 12 15 16 16 16 13 10 10 8 7 6 5 3 2 0 1 2
7 3 7 9 1 2 6 8 13 11 8 7 22 25 30 29 25 26 27 20 22 23 22 19 18 15 13 13 14 17 18 16 14 13 11 11 11 9 7 5 3 2 2 1
3 6 7 15 20 16 19 22 19 25 22 15 9 19 26 19 22 26 23 23 23 23 21 19 18 18 17 14 13 15 17 16 15 14 13 14 11 9 8 7 6 4 3 2
1 4 1 11 16 11 17 25 25 27 28 31 38 43 35 32 17 17 22 19 22 22 24 24 21 20 20 16 17 14 18 21 19 20 20 17 14 13 12 10 8 6 4 3
5 4 3 9 5 17 18 15 18 10 8 27 22 23 14 21 16 15 19 22 21 21 25 25 25 23 20 17 14 16 16 15 21 22 20 19 18 17 14 11 9 8 7 5
6 5 2 9 14 5 3 1 11 15 14 24 19 20 18 21 22 20 22 17 20 20 24 25 24 24 19 14 14 13 10 15 19 19 20 19 18 17 15 13 12 10 8 9
5 8 3 5 5 18 4 2 4 3 9 10 26 20 18 19 15 15 13 6 15 22 24 24 24 23 21 22 18 14 13 15 17 23 23 19 19 18 16 16 16 13 11 10
9 6 12 4 4 7 2 1 2 2 5 10 3 6 12 15 20 22 13 20 23 21 23 25 25 21 19 26 18 16 18 15 22 24 24 21 22 22 21 19 17 12 10 11
6 4 20 15 8 14 13 7 2 3 2 9 7 13 14 13 17 28 27 27 24 24 27 25 22 22 22 21 15 20 19 22 25 16 16 18 20 21 19 18 15 14 13 11
9 12 9 8 7 12 5 4 4 2 4 13 14 11 18 26 30 29 28 28 29 28 27 23 20 24 23 18 13 21 23 25 15 15 18 18 18 17 16 18 15 14 14 14
7 10 7 18 14 6 3 9 9 12 18 14 16 23 24 30 31 31 30 30 28 27 26 23 22 25 24 20 16 21 28 16 14 15 18 19 18 19 18 19 17 14 14 13
6 7 9 4 7 17 16 15 12 10 14 20 20 22 23 28 29 32 31 30 28 26 25 23 22 23 24 24 17 21 24 14 14 17 18 17 19 19 18 16 16 16 17 16
10 4 17 18 20 23 16 12 22 22 24 27 22 19 22 23 25 25 26 27 26 25 24 23 23 23 25 25 22 20 20 15 17 17 16 17 17 20 19 19 20 19 17 18
13 31 27 31 27 24 22 23 19 25 25 22 20 23 22 18 21 21 23 23 23 25 25 24 24 23 23 22 22 21 14 13 16 16 15 16 16 17 18 18 14 16 13 19
Wind_Direction
20 77 80 73 60 98 102 357 295 275 304 323 282 287 290 298 276 268 270 268 260 260 268 258 275 270 291 297 322 330 330 337 341 343 337 334 327 325 321 316 306 297 291 287
51 89 159 142 89 90 70 320 308 287 286 307 311 297 297 281 263 239 252 258 254 253 263 275 261 263 284 312 330 339 345 341 338 327 313 292 298 304 301 303 303 298 296 292
100 131 143 131 84 8 328 274 330 292 318 270 319 290 289 245 260 262 257 255 258 254 264 272 283 281 296 322 336 342 339 330 326 311 301 313 313 309 317 317 317 309 303 299
80 119 129 116 296 62 329 205 311 314 344 298 8 292 276 245 267 265 263 247 256 260 260 269 282 289 301 307 316 325 333 324 322 311 318 327 320 318 316 319 305 323 307 310
143 155 176 239 271 194 307 352 320 333 345 329 311 281 267 308 248 242 237 254 272 285 273 272 279 279 279 288 297 316 323 320 324 322 324 328 328 320 318 326 331 338 346 339
94 211 203 250 13 250 357 28 41 63 27 271 234 5 277 205 215 193 234 266 295 303 294 279 276 272 274 278 282 294 312 325 333 331 328 332 329 330 334 335 345 349 355 358
351 249 277 204 19 38 31 26 320 318 336 273 339 285 251 255 236 220 260 299 307 300 290 284 284 279 277 276 267 272 288 316 335 334 328 335 334 330 328 327 337 356 9 9
20 277 186 177 189 177 48 84 89 302 314 296 12 239 247 267 290 271 274 278 296 289 289 289 285 282 272 263 250 252 265 287 318 332 330 334 339 336 326 326 332 7 32 26
167 257 251 213 175 173 165 63 150 108 333 300 258 276 284 298 263 255 262 285 280 284 290 293 303 289 276 256 242 235 241 253 271 311 320 331 340 339 338 335 344 353 12 24
177 300 216 23 114 46 209 148 358 38 307 304 288 285 258 342 264 233 232 269 294 292 294 296 297 290 274 250 238 229 234 247 241 258 274 299 317 326 331 335 354 354 18 20
137 161 237 172 202 188 151 195 99 122 163 261 308 288 222 267 305 282 297 299 294 295 293 292 292 292 280 256 230 227 228 235 231 227 238 251 269 292 315 330 347 351 9 14
166 153 265 218 131 119 189 200 179 193 227 208 230 277 287 278 289 299 304 301 301 298 298 300 300 297 288 256 232 225 226 226 224 219 221 224 229 239 245 254 326 354 7 30
179 208 310 306 41 13 241 209 190 130 134 215 207 258 295 307 313 287 300 306 306 304 307 311 311 305 292 273 243 231 226 225 220 211 212 216 224 236 248 264 292 312 94 62
156 183 222 246 225 147 231 213 209 198 214 227 230 267 273 290 309 314 314 308 306 308 308 307 309 305 296 281 255 234 232 227 221 215 216 220 216 212 219 234 243 265 315 320
184 249 227 261 269 261 254 248 226 220 217 236 269 252 271 286 299 302 301 305 317 324 325 317 304 297 297 297 278 241 232 222 215 218 221 226 225 221 215 219 227 232 224 232
142 271 302 287 272 273 272 257 237 234 239 246 258 273 284 280 291 295 306 313 320 322 326 322 310 293 289 292 292 268 234 219 204 210 217 217 212 212 214 214 213 216 226 235
181 211 352 281 310 309 285 272 201 201 220 224 236 244 274 295 302 310 314 311 309 317 323 317 314 301 284 290 292 283 256 219 211 212 215 212 209 212 214 209 205 208 212 215
169 161 214 287 331 271 330 147 182 221 246 217 243 260 280 285 289 297 289 284 304 317 319 316 314 306 286 284 285 285 263 229 222 219 218 212 209 212 207 201 208 212 207 210
181 173 256 268 285 293 321 98 131 176 304 243 237 267 284 299 304 303 286 315 297 297 297 298 299 293 281 288 290 280 263 237 218 224 224 213 207 208 206 209 207 202 203 211
174 188 192 167 240 267 309 48 153 167 30 31 212 310 304 314 318 318 306 304 295 288 294 294 294 292 284 285 278 273 264 243 238 230 222 205 201 203 205 205 203 203 206 207
124 197 220 229 258 282 269 259 292 318 343 348 328 308 304 306 287 292 293 289 288 285 290 288 288 287 279 284 271 267 261 253 248 233 217 205 203 205 203 200 197 199 199 197
188 171 193 193 224 272 216 76 191 324 314 314 300 296 311 306 302 301 298 297 298 297 292 284 287 289 284 280 262 269 257 254 244 226 214 210 206 201 200 199 197 201 193 192
243 207 199 193 218 245 244 255 296 296 300 302 312 318 312 308 306 307 308 306 301 299 297 296 288 288 287 288 263 269 265 244 234 221 219 213 201 196 191 192 193 197 197 200
236 209 236 213 256 267 302 301 287 291 299 318 306 307 302 300 305 306 308 308 307 304 301 301 295 287 286 294 277 256 271 239 222 225 222 206 200 196 193 193 190 192 193 200
238 233 262 269 275 284 285 302 306 306 314 310 310 302 300 304 304 308 308 310 310 308 307 304 299 295 292 295 291 277 267 231 231 229 220 208 203 199 196 197 193 196 202 196
224 251 259 266 277 286 288 288 297 303 303 305 311 313 310 308 303 307 306 307 307 309 310 311 308 304 300 300 296 293 274 236 235 234 223 214 205 201 197 193 192 206 201 202